TimeEST,TemperatureF,Dew PointF,Humidity,Sea Level PressureIn,VisibilityMPH,Wind Direction,Wind SpeedMPH,Gust SpeedMPH,PrecipitationIn,Events,Conditions,WindDirDegrees,DateUTC
12:13 AM,57.2,51.8,82,29.47,7.0,South,13.8,-,N/A,,Mostly Cloudy,170,2013-01-30 05:13:00
12:24 AM,57.2,51.8,82,29.46,7.0,South,12.7,-,0.00,Rain,Light Rain,170,2013-01-30 05:24:00
12:36 AM,57.2,51.8,82,29.44,8.0,SSE,12.7,-,0.00,Rain,Light Rain,160,2013-01-30 05:36:00
12:43 AM,57.2,51.8,82,29.44,9.0,South,13.8,-,0.00,,Mostly Cloudy,170,2013-01-30 05:43:00
1:23 AM,57.2,51.8,82,29.40,9.0,South,10.4,-,0.00,,Mostly Cloudy,170,2013-01-30 06:23:00
1:53 AM,60.1,53.1,78,29.36,10.0,South,13.8,-,0.00,Rain,Light Rain,180,2013-01-30 06:53:00
2:53 AM,62.1,55.0,78,29.30,10.0,South,20.7,26.5,0.01,Rain,Light Rain,170,2013-01-30 07:53:00
3:53 AM,63.0,55.0,75,29.26,10.0,South,19.6,29.9,0.00,,Overcast,180,2013-01-30 08:53:00
4:23 AM,60.8,53.6,77,29.30,5.0,WNW,18.4,32.2,0.03,Rain,Rain,290,2013-01-30 09:23:00
4:37 AM,57.2,53.6,88,29.31,6.0,WNW,15.0,-,0.05,Rain,Light Rain,300,2013-01-30 09:37:00
4:53 AM,57.0,52.0,83,29.31,6.0,NW,11.5,-,0.07,Rain,Light Rain,320,2013-01-30 09:53:00
5:53 AM,55.0,50.0,83,29.34,5.0,West,10.4,-,0.04,Rain,Rain,280,2013-01-30 10:53:00
6:53 AM,53.1,48.9,86,29.32,6.0,WSW,3.5,-,0.07,Rain,Light Rain,240,2013-01-30 11:53:00
7:53 AM,52.0,48.0,86,29.31,9.0,South,6.9,-,0.03,Rain,Light Rain,170,2013-01-30 12:53:00
8:15 AM,51.8,48.2,88,29.28,3.0,SSE,6.9,-,0.00,,Overcast,150,2013-01-30 13:15:00
8:23 AM,51.8,48.2,88,29.29,2.5,SSE,6.9,-,0.00,,Mostly Cloudy,160,2013-01-30 13:23:00
8:30 AM,51.8,48.2,88,29.29,9.0,SSE,8.1,-,0.00,,Mostly Cloudy,160,2013-01-30 13:30:00
8:53 AM,53.1,48.9,86,29.27,10.0,South,8.1,-,0.00,,Scattered Clouds,180,2013-01-30 13:53:00
9:04 AM,53.6,50.0,88,29.27,10.0,South,5.8,-,N/A,,Scattered Clouds,190,2013-01-30 14:04:00
9:15 AM,53.6,48.2,82,29.25,10.0,SSE,6.9,-,N/A,,Mostly Cloudy,160,2013-01-30 14:15:00
9:53 AM,53.1,50.0,89,29.28,10.0,South,9.2,-,N/A,,Overcast,180,2013-01-30 14:53:00
10:01 AM,53.6,48.2,82,29.31,10.0,SSW,8.1,-,N/A,,Overcast,210,2013-01-30 15:01:00